| time (UTC) | temp F | wind direction | speed MPH | gust MPH | rain 1hr in | rain 24hr in | rain mn in | humidity % | barometer mb |
| 20260831053836 | 63 | 323 | 0.0 | 0.0 | 0.00 | 0.00 | 0.00 | 99 | 1022.1 |
| 20260831053335 | 63 | 328 | 0.0 | 0.0 | 0.00 | 0.00 | 0.00 | 99 | 1022.0 |
| 20260831052829 | 64 | 332 | 0.0 | 0.0 | 0.00 | 0.00 | 0.00 | 99 | 1021.9 |
| 20260831052329 | 64 | 333 | 0.0 | 0.0 | 0.00 | 0.00 | 0.00 | 99 | 1021.8 |
| 20260831051827 | 64 | 332 | 0.0 | 0.0 | 0.00 | 0.00 | 0.00 | 99 | 1021.9 |
| 20260831051326 | 64 | 343 | 0.0 | 0.0 | 0.00 | 0.00 | 0.00 | 99 | 1022.0 |
| 20260831050821 | 64 | 345 | 0.0 | 0.0 | 0.00 | 0.00 | 0.00 | 99 | 1021.8 |
| 20260831050319 | 64 | 319 | 0.0 | 0.0 | 0.00 | 0.00 | 0.00 | 99 | 1021.7 |
| 20260831045814 | 64 | 313 | 0.0 | 0.0 | 0.00 | 0.00 | 0.00 | 99 | 1022.0 |
| 20260831045314 | 64 | 15 | 0.0 | 0.0 | 0.00 | 0.00 | 0.00 | 99 | 1021.7 |
| 20260831044809 | 64 | 329 | 0.0 | 0.0 | 0.00 | 0.00 | 0.00 | 99 | 1021.9 |
| 20260831044303 | 65 | 293 | 0.0 | 0.0 | 0.00 | 0.00 | 0.00 | 99 | 1021.8 |
| 20260831043754 | 65 | 316 | 0.0 | 0.0 | 0.00 | 0.00 | 0.00 | 99 | 1021.6 |
| 20260831043248 | 65 | 315 | 0.0 | 0.0 | 0.00 | 0.00 | 0.00 | 99 | 1021.8 |
| 20260831042748 | 65 | 315 | 0.0 | 0.0 | 0.00 | 0.00 | 0.00 | 99 | 1021.9 |
| 20260831042243 | 65 | 323 | 0.0 | 0.0 | 0.00 | 0.00 | 0.00 | 99 | 1021.9 |
| 20260831041738 | 65 | 332 | 0.0 | 0.0 | 0.00 | 0.00 | 0.00 | 99 | 1022.0 |
| 20260831041238 | 65 | 326 | 0.0 | 0.0 | 0.00 | 0.00 | 0.00 | 99 | 1021.8 |
| 20260831040733 | 65 | 319 | 0.0 | 0.0 | 0.00 | 0.00 | 0.00 | 99 | 1021.8 |
| 20260831040232 | 65 | 323 | 0.0 | 0.0 | 0.00 | 0.00 | 0.00 | 99 | 1021.7 |
| 20260831035730 | 65 | 329 | 0.0 | 0.0 | 0.00 | 0.05 | 0.05 | 99 | 1021.7 |
| 20260831035224 | 65 | 320 | 0.0 | 0.0 | 0.00 | 0.05 | 0.05 | 99 | 1021.7 |
| 20260831034723 | 65 | 320 | 0.0 | 0.0 | 0.00 | 0.05 | 0.05 | 99 | 1021.7 |
| 20260831034219 | 66 | 320 | 0.0 | 0.0 | 0.00 | 0.05 | 0.05 | 99 | 1021.9 |
| 20260831033714 | 66 | 320 | 0.0 | 0.0 | 0.00 | 0.05 | 0.05 | 99 | 1021.8 |
| 20260831033214 | 66 | 327 | 0.0 | 0.0 | 0.00 | 0.05 | 0.05 | 99 | 1022.0 |
| 20260831032709 | 66 | 327 | 0.0 | 0.0 | 0.00 | 0.05 | 0.05 | 99 | 1022.1 |
| 20260831032205 | 66 | 327 | 0.0 | 0.0 | 0.00 | 0.05 | 0.05 | 99 | 1022.1 |
| 20260831031659 | 66 | 344 | 0.0 | 0.0 | 0.00 | 0.05 | 0.05 | 99 | 1022.1 |
| 20260831031153 | 66 | 328 | 0.0 | 0.0 | 0.00 | 0.05 | 0.05 | 99 | 1022.0 |
| 20260831030652 | 66 | 328 | 0.0 | 0.0 | 0.00 | 0.05 | 0.05 | 99 | 1021.8 |
| 20260831030151 | 66 | 322 | 0.0 | 0.0 | 0.00 | 0.05 | 0.05 | 99 | 1022.2 |
| 20260831025649 | 66 | 331 | 0.0 | 0.0 | 0.00 | 0.05 | 0.05 | 99 | 1022.1 |
| 20260831025144 | 66 | 327 | 0.0 | 0.0 | 0.00 | 0.05 | 0.05 | 99 | 1022.1 |
| 20260831024641 | 66 | 316 | 0.0 | 0.0 | 0.00 | 0.05 | 0.05 | 99 | 1022.0 |
| 20260831024139 | 66 | 316 | 0.0 | 0.0 | 0.00 | 0.05 | 0.05 | 99 | 1022.0 |
| 20260831023638 | 66 | 315 | 0.0 | 0.0 | 0.00 | 0.05 | 0.05 | 99 | 1022.0 |
| 20260831023132 | 66 | 314 | 0.0 | 0.0 | 0.05 | 0.05 | 0.05 | 99 | 1022.4 |
| 20260831022627 | 66 | 314 | 0.0 | 0.0 | 0.05 | 0.05 | 0.05 | 99 | 1022.4 |
| 20260831022122 | 67 | 316 | 0.0 | 0.0 | 0.05 | 0.05 | 0.05 | 99 | 1022.7 |
| 20260831021621 | 67 | 304 | 0.0 | 0.0 | 0.00 | 0.04 | 0.04 | 99 | 1022.5 |
| 20260831021117 | 67 | 317 | 0.0 | 0.0 | 0.00 | 0.04 | 0.04 | 99 | 1022.4 |
| 20260831020613 | 67 | 302 | 0.0 | 0.0 | 0.07 | 0.04 | 0.04 | 99 | 1022.3 |
| 20260831020107 | 68 | 307 | 0.0 | 0.0 | 0.07 | 0.04 | 0.04 | 99 | 1022.4 |
| 20260831015603 | 68 | 298 | 0.0 | 0.0 | 0.00 | 0.03 | 0.03 | 99 | 1022.4 |
| 20260831015057 | 68 | 305 | 0.0 | 0.0 | 0.00 | 0.03 | 0.03 | 99 | 1022.1 |
| 20260831014552 | 68 | 307 | 0.0 | 0.0 | 0.00 | 0.03 | 0.03 | 99 | 1022.1 |
| 20260831014047 | 68 | 302 | 0.0 | 0.0 | 0.00 | 0.03 | 0.03 | 99 | 1022.2 |
| 20260831013543 | 68 | 305 | 0.0 | 0.0 | 0.00 | 0.03 | 0.03 | 99 | 1022.0 |
| 20260831013037 | 68 | 309 | 0.0 | 0.0 | 0.00 | 0.03 | 0.03 | 99 | 1021.9 |
| 20260831012532 | 68 | 311 | 0.0 | 0.0 | 0.00 | 0.03 | 0.03 | 99 | 1021.9 |
| 20260831012032 | 68 | 311 | 0.0 | 0.0 | 0.00 | 0.03 | 0.03 | 99 | 1021.4 |
| 20260831011532 | 68 | 313 | 0.0 | 0.0 | 0.00 | 0.03 | 0.03 | 99 | 1021.7 |
| 20260831011028 | 68 | 301 | 0.0 | 0.0 | 0.00 | 0.03 | 0.03 | 99 | 1021.7 |
| 20260831010523 | 68 | 317 | 0.0 | 0.0 | 0.00 | 0.03 | 0.03 | 99 | 1021.5 |
| 20260831010019 | 68 | 319 | 0.0 | 0.0 | 0.00 | 0.03 | 0.03 | 99 | 1021.6 |
| 20260831005519 | 68 | 316 | 0.0 | 0.0 | 0.05 | 0.03 | 0.03 | 99 | 1021.6 |
| 20260831005018 | 68 | 316 | 0.0 | 0.0 | 0.05 | 0.03 | 0.03 | 99 | 1021.6 |
| 20260831004515 | 68 | 303 | 0.0 | 0.0 | 0.00 | 0.02 | 0.02 | 99 | 1021.5 |
| 20260831004015 | 68 | 315 | 0.0 | 0.0 | 0.00 | 0.02 | 0.02 | 99 | 1021.4 |
| 20260831003512 | 69 | 316 | 0.0 | 0.0 | 0.00 | 0.02 | 0.02 | 99 | 1021.5 |
| 20260831003008 | 69 | 323 | 0.0 | 0.0 | 0.07 | 0.02 | 0.02 | 99 | 1021.2 |
| 20260831002506 | 69 | 326 | 0.0 | 0.0 | 0.07 | 0.02 | 0.02 | 99 | 1021.2 |
| 20260831002000 | 69 | 321 | 0.0 | 0.0 | 0.00 | 0.01 | 0.01 | 99 | 1021.3 |
| 20260831001456 | 69 | 322 | 0.0 | 0.0 | 0.00 | 0.01 | 0.01 | 99 | 1021.2 |
| 20260831000953 | 69 | 323 | 0.0 | 0.0 | 0.05 | 0.01 | 0.01 | 99 | 1021.2 |
| 20260831000449 | 69 | 321 | 0.0 | 0.0 | 0.05 | 0.01 | 0.01 | 99 | 1021.2 |
| 20260830235946 | 69 | 320 | 0.0 | 0.0 | 0.00 | 0.00 | 0.00 | 99 | 1021.4 |
| 20260830235442 | 69 | 322 | 0.0 | 0.0 | 0.00 | 0.00 | 0.00 | 99 | 1021.1 |
| 20260830234937 | 69 | 328 | 0.0 | 0.0 | 0.00 | 0.00 | 0.00 | 99 | 1020.9 |
| 20260830234432 | 69 | 322 | 0.0 | 0.0 | 0.00 | 0.00 | 0.00 | 99 | 1020.8 |
| 20260830233928 | 69 | 320 | 0.0 | 0.0 | 0.00 | 0.00 | 0.00 | 99 | 1021.0 |
| 20260830233423 | 69 | 326 | 0.0 | 0.0 | 0.00 | 0.00 | 0.00 | 98 | 1020.9 |
| 20260830232919 | 70 | 312 | 1.0 | 1.0 | 0.00 | 0.00 | 0.00 | 97 | 1020.9 |
| 20260830232415 | 70 | 323 | 0.0 | 0.0 | 0.00 | 0.00 | 0.00 | 97 | 1021.0 |
| 20260830231912 | 70 | 323 | 0.0 | 0.0 | 0.00 | 0.00 | 0.00 | 96 | 1020.9 |
| 20260830231406 | 70 | 323 | 0.0 | 0.0 | 0.00 | 0.00 | 0.00 | 96 | 1020.9 |
| 20260830230905 | 70 | 323 | 0.0 | 0.0 | 0.00 | 0.00 | 0.00 | 95 | 1020.7 |
| 20260830230401 | 70 | 323 | 0.0 | 0.0 | 0.00 | 0.00 | 0.00 | 95 | 1020.8 |
| 20260830225900 | 70 | 318 | 0.0 | 0.0 | 0.00 | 0.00 | 0.00 | 95 | 1020.5 |
| 20260830225355 | 70 | 316 | 0.0 | 0.0 | 0.00 | 0.00 | 0.00 | 95 | 1020.7 |
| 20260830224850 | 70 | 321 | 0.0 | 0.0 | 0.00 | 0.00 | 0.00 | 95 | 1020.7 |
| 20260830224344 | 70 | 317 | 0.0 | 0.0 | 0.00 | 0.00 | 0.00 | 95 | 1020.7 |
| 20260830223841 | 70 | 314 | 1.0 | 1.0 | 0.00 | 0.00 | 0.00 | 95 | 1021.0 |
| 20260830223337 | 70 | 326 | 0.0 | 0.0 | 0.00 | 0.00 | 0.00 | 94 | 1020.9 |
| 20260830222836 | 71 | 316 | 0.0 | 0.0 | 0.00 | 0.00 | 0.00 | 94 | 1021.1 |
| 20260830222332 | 71 | 321 | 0.0 | 0.0 | 0.00 | 0.00 | 0.00 | 94 | 1020.8 |
| 20260830221827 | 71 | 319 | 0.0 | 0.0 | 0.00 | 0.00 | 0.00 | 94 | 1020.9 |
| 20260830221324 | 71 | 319 | 0.0 | 0.0 | 0.00 | 0.00 | 0.00 | 94 | 1020.8 |
| 20260830220824 | 71 | 317 | 0.0 | 0.0 | 0.00 | 0.00 | 0.00 | 94 | 1020.9 |
| 20260830220323 | 71 | 321 | 0.0 | 0.0 | 0.00 | 0.00 | 0.00 | 93 | 1021.1 |
| 20260830215821 | 71 | 324 | 0.0 | 0.0 | 0.00 | 0.00 | 0.00 | 93 | 1020.8 |
| 20260830215316 | 71 | 316 | 0.0 | 0.0 | 0.00 | 0.00 | 0.00 | 93 | 1021.1 |
| 20260830214811 | 71 | 319 | 0.0 | 0.0 | 0.00 | 0.00 | 0.00 | 93 | 1021.0 |
| 20260830214306 | 71 | 318 | 0.0 | 0.0 | 0.00 | 0.00 | 0.00 | 93 | 1020.9 |
| 20260830213806 | 71 | 317 | 0.0 | 1.0 | 0.00 | 0.00 | 0.00 | 93 | 1020.8 |
| 20260830213301 | 71 | 310 | 1.0 | 2.0 | 0.00 | 0.00 | 0.00 | 93 | 1020.7 |
| 20260830212757 | 71 | 321 | 0.0 | 0.0 | 0.00 | 0.00 | 0.00 | 92 | 1020.8 |
| 20260830212253 | 71 | 318 | 0.0 | 0.0 | 0.00 | 0.00 | 0.00 | 92 | 1020.9 |
| 20260830211751 | 71 | 326 | 0.0 | 0.0 | 0.00 | 0.00 | 0.00 | 92 | 1021.0 |
| 20260830211251 | 71 | 316 | 0.0 | 0.0 | 0.00 | 0.00 | 0.00 | 92 | 1020.8 |
| 20260830210747 | 72 | 316 | 0.0 | 0.0 | 0.00 | 0.00 | 0.00 | 91 | 1020.8 |
| 20260830210246 | 72 | 322 | 2.0 | 2.0 | 0.00 | 0.00 | 0.00 | 91 | 1020.8 |
| 20260830205743 | 72 | 321 | 0.0 | 0.0 | 0.00 | 0.00 | 0.00 | 91 | 1021.1 |
| 20260830205238 | 72 | 318 | 0.0 | 0.0 | 0.00 | 0.00 | 0.00 | 90 | 1021.2 |
| 20260830204734 | 72 | 317 | 0.0 | 1.0 | 0.00 | 0.00 | 0.00 | 91 | 1021.1 |
| 20260830204232 | 72 | 309 | 1.0 | 1.0 | 0.00 | 0.00 | 0.00 | 90 | 1021.1 |
| 20260830203729 | 72 | 320 | 0.0 | 0.0 | 0.00 | 0.00 | 0.00 | 90 | 1021.1 |
| 20260830203224 | 72 | 328 | 1.0 | 2.0 | 0.00 | 0.00 | 0.00 | 90 | 1021.2 |
| 20260830202723 | 71 | 313 | 1.0 | 1.0 | 0.00 | 0.00 | 0.00 | 91 | 1021.5 |
| 20260830202219 | 71 | 311 | 1.0 | 1.0 | 0.00 | 0.00 | 0.00 | 91 | 1021.3 |
| 20260830201718 | 71 | 315 | 1.0 | 2.0 | 0.00 | 0.00 | 0.00 | 91 | 1021.4 |
| 20260830201214 | 71 | 324 | 0.0 | 0.0 | 0.00 | 0.00 | 0.00 | 90 | 1021.3 |
| 20260830200709 | 72 | 322 | 0.0 | 1.0 | 0.00 | 0.00 | 0.00 | 89 | 1021.4 |
| 20260830200208 | 72 | 321 | 0.0 | 0.0 | 0.00 | 0.00 | 0.00 | 89 | 1021.1 |
| 20260830195704 | 72 | 318 | 0.0 | 0.0 | 0.00 | 0.00 | 0.00 | 88 | 1021.4 |
| 20260830195202 | 73 | 320 | 0.0 | 0.0 | 0.00 | 0.00 | 0.00 | 87 | 1021.5 |
| 20260830194702 | 73 | 320 | 0.0 | 0.0 | 0.00 | 0.00 | 0.00 | 87 | 1021.4 |
| 20260830194201 | 73 | 319 | 1.0 | 1.0 | 0.00 | 0.00 | 0.00 | 86 | 1021.5 |
| 20260830193656 | 73 | 316 | 1.0 | 2.0 | 0.00 | 0.00 | 0.00 | 86 | 1021.6 |
| 20260830193150 | 72 | 315 | 0.0 | 1.0 | 0.00 | 0.00 | 0.00 | 86 | 1021.4 |
| 20260830192646 | 72 | 320 | 0.0 | 0.0 | 0.00 | 0.00 | 0.00 | 86 | 1021.8 |
| 20260830192140 | 72 | 316 | 0.0 | 0.0 | 0.00 | 0.00 | 0.00 | 85 | 1021.8 |
| 20260830191631 | 72 | 299 | 0.0 | 0.0 | 0.00 | 0.00 | 0.00 | 85 | 1021.9 |
| 20260830191125 | 72 | 315 | 1.0 | 1.0 | 0.00 | 0.00 | 0.00 | 84 | 1022.3 |
| 20260830190615 | 71 | 314 | 0.0 | 0.0 | 0.00 | 0.00 | 0.00 | 85 | 1022.0 |
| 20260830190109 | 71 | 313 | 0.0 | 0.0 | 0.00 | 0.00 | 0.00 | 85 | 1022.1 |
| 20260830185603 | 72 | 319 | 0.0 | 0.0 | 0.00 | 0.00 | 0.00 | 84 | 1022.4 |
| 20260830185059 | 72 | 322 | 1.0 | 1.0 | 0.00 | 0.00 | 0.00 | 83 | 1022.3 |
| 20260830184557 | 72 | 352 | 0.0 | 0.0 | 0.00 | 0.00 | 0.00 | 82 | 1022.3 |
| 20260830184052 | 72 | 315 | 1.0 | 1.0 | 0.00 | 0.00 | 0.00 | 80 | 1022.1 |
| 20260830183546 | 73 | 318 | 2.0 | 2.0 | 0.00 | 0.00 | 0.00 | 79 | 1022.5 |
| 20260830183043 | 74 | 318 | 0.0 | 1.0 | 0.00 | 0.00 | 0.00 | 78 | 1022.4 |
| 20260830182538 | 73 | 322 | 0.0 | 0.0 | 0.00 | 0.00 | 0.00 | 78 | 1022.4 |
| 20260830182034 | 74 | 308 | 1.0 | 1.0 | 0.00 | 0.00 | 0.00 | 76 | 1022.5 |
| 20260830181530 | 76 | 290 | 1.0 | 2.0 | 0.00 | 0.00 | 0.00 | 74 | 1022.5 |
| 20260830181029 | 76 | 287 | 0.0 | 1.0 | 0.00 | 0.00 | 0.00 | 74 | 1022.4 |
| 20260830180524 | 76 | 307 | 1.0 | 2.0 | 0.00 | 0.00 | 0.00 | 72 | 1022.7 |
| 20260830180023 | 76 | 312 | 1.0 | 1.0 | 0.00 | 0.00 | 0.00 | 74 | 1022.8 |
| 20260830175522 | 76 | 329 | 2.0 | 3.0 | 0.00 | 0.00 | 0.00 | 74 | 1022.8 |
| 20260830175018 | 76 | 315 | 0.0 | 0.0 | 0.00 | 0.00 | 0.00 | 73 | 1022.9 |
| 20260830174513 | 75 | 307 | 0.0 | 1.0 | 0.00 | 0.00 | 0.00 | 73 | 1022.8 |
| 20260830174008 | 76 | 309 | 1.0 | 2.0 | 0.00 | 0.00 | 0.00 | 70 | 1022.9 |
| 20260830173503 | 76 | 323 | 2.0 | 4.0 | 0.00 | 0.00 | 0.00 | 71 | 1023.0 |
| 20260830172958 | 76 | 341 | 1.0 | 1.0 | 0.00 | 0.00 | 0.00 | 69 | 1022.9 |
| 20260830172455 | 75 | 314 | 1.0 | 1.0 | 0.00 | 0.00 | 0.00 | 71 | 1022.9 |
| 20260830171950 | 75 | 319 | 0.0 | 1.0 | 0.00 | 0.00 | 0.00 | 71 | 1023.0 |
| 20260830171445 | 75 | 342 | 0.0 | 1.0 | 0.00 | 0.00 | 0.00 | 71 | 1023.0 |
| 20260830170945 | 75 | 282 | 3.0 | 4.0 | 0.00 | 0.00 | 0.00 | 70 | 1023.3 |
| 20260830170440 | 75 | 318 | 0.0 | 0.0 | 0.00 | 0.00 | 0.00 | 74 | 1023.0 |
| 20260830165938 | 76 | 323 | 1.0 | 2.0 | 0.00 | 0.00 | 0.00 | 70 | 1023.4 |
| 20260830165435 | 76 | 314 | 0.0 | 1.0 | 0.00 | 0.00 | 0.00 | 72 | 1023.2 |
| 20260830164931 | 75 | 304 | 2.0 | 2.0 | 0.00 | 0.00 | 0.00 | 71 | 1023.4 |
| 20260830164426 | 76 | 307 | 3.0 | 3.0 | 0.00 | 0.00 | 0.00 | 69 | 1023.4 |
| 20260830163923 | 75 | 299 | 1.0 | 1.0 | 0.00 | 0.00 | 0.00 | 71 | 1023.1 |
| 20260830163419 | 75 | 306 | 1.0 | 2.0 | 0.00 | 0.00 | 0.00 | 69 | 1023.3 |
| 20260830162918 | 75 | 321 | 0.0 | 0.0 | 0.00 | 0.00 | 0.00 | 70 | 1023.3 |
| 20260830162414 | 75 | 309 | 1.0 | 1.0 | 0.00 | 0.00 | 0.00 | 71 | 1023.5 |
| 20260830161908 | 74 | 309 | 1.0 | 1.0 | 0.00 | 0.00 | 0.00 | 72 | 1023.6 |
| 20260830161408 | 75 | 310 | 2.0 | 3.0 | 0.00 | 0.00 | 0.00 | 72 | 1023.4 |
| 20260830160903 | 75 | 0 | 1.0 | 2.0 | 0.00 | 0.00 | 0.00 | 71 | 1023.7 |
| 20260830160359 | 75 | 318 | 1.0 | 1.0 | 0.00 | 0.00 | 0.00 | 71 | 1023.5 |
| 20260830155854 | 75 | 302 | 1.0 | 1.0 | 0.00 | 0.00 | 0.00 | 70 | 1023.8 |
| 20260830155350 | 73 | 316 | 1.0 | 1.0 | 0.00 | 0.00 | 0.00 | 73 | 1023.9 |
| 20260830154845 | 73 | 319 | 0.0 | 1.0 | 0.00 | 0.00 | 0.00 | 72 | 1024.1 |
| 20260830154341 | 73 | 324 | 0.0 | 1.0 | 0.00 | 0.00 | 0.00 | 72 | 1023.9 |
| 20260830153838 | 74 | 317 | 0.0 | 0.0 | 0.00 | 0.00 | 0.00 | 71 | 1024.0 |
| 20260830153333 | 74 | 323 | 1.0 | 1.0 | 0.00 | 0.00 | 0.00 | 71 | 1024.0 |
| 20260830152831 | 73 | 231 | 1.0 | 2.0 | 0.00 | 0.00 | 0.00 | 73 | 1023.9 |
| 20260830152326 | 73 | 320 | 0.0 | 0.0 | 0.00 | 0.00 | 0.00 | 74 | 1024.3 |
| 20260830151821 | 73 | 312 | 1.0 | 1.0 | 0.00 | 0.00 | 0.00 | 72 | 1024.6 |
| 20260830151320 | 73 | 346 | 0.0 | 1.0 | 0.00 | 0.00 | 0.00 | 69 | 1024.4 |
| 20260830150815 | 72 | 317 | 0.0 | 0.0 | 0.00 | 0.00 | 0.00 | 74 | 1024.2 |
| 20260830150314 | 72 | 315 | 0.0 | 1.0 | 0.00 | 0.00 | 0.00 | 73 | 1024.5 |
| 20260830145809 | 73 | 309 | 0.0 | 1.0 | 0.00 | 0.00 | 0.00 | 72 | 1024.3 |
| 20260830145306 | 73 | 319 | 1.0 | 1.0 | 0.00 | 0.00 | 0.00 | 70 | 1024.5 |
| 20260830144759 | 72 | 311 | 1.0 | 1.0 | 0.00 | 0.00 | 0.00 | 70 | 1024.6 |
| 20260830144255 | 73 | 306 | 1.0 | 1.0 | 0.00 | 0.00 | 0.00 | 71 | 1024.5 |
| 20260830143751 | 73 | 335 | 2.0 | 3.0 | 0.00 | 0.00 | 0.00 | 71 | 1024.5 |
| 20260830143250 | 72 | 314 | 0.0 | 0.0 | 0.00 | 0.00 | 0.00 | 75 | 1024.7 |
| 20260830142745 | 72 | 304 | 2.0 | 2.0 | 0.00 | 0.00 | 0.00 | 73 | 1024.4 |
| 20260830142240 | 72 | 320 | 1.0 | 1.0 | 0.00 | 0.00 | 0.00 | 75 | 1024.5 |
| 20260830141735 | 72 | 306 | 1.0 | 1.0 | 0.00 | 0.00 | 0.00 | 74 | 1024.5 |
| 20260830141231 | 71 | 321 | 0.0 | 0.0 | 0.00 | 0.00 | 0.00 | 76 | 1024.5 |
| 20260830140725 | 70 | 321 | 0.0 | 0.0 | 0.00 | 0.00 | 0.00 | 78 | 1024.6 |
| 20260830140220 | 71 | 320 | 0.0 | 0.0 | 0.00 | 0.00 | 0.00 | 77 | 1024.5 |
| 20260830135715 | 71 | 318 | 0.0 | 0.0 | 0.00 | 0.00 | 0.00 | 75 | 1024.6 |
| 20260830135210 | 71 | 325 | 0.0 | 0.0 | 0.00 | 0.00 | 0.00 | 75 | 1024.5 |
| 20260830134706 | 71 | 311 | 0.0 | 0.0 | 0.00 | 0.00 | 0.00 | 75 | 1024.6 |
| 20260830134200 | 71 | 305 | 0.0 | 0.0 | 0.00 | 0.00 | 0.00 | 75 | 1024.4 |
| 20260830133656 | 71 | 314 | 0.0 | 0.0 | 0.00 | 0.00 | 0.00 | 75 | 1024.4 |
| 20260830133152 | 70 | 335 | 0.0 | 0.0 | 0.00 | 0.00 | 0.00 | 75 | 1024.8 |
| 20260830132648 | 69 | 333 | 0.0 | 0.0 | 0.00 | 0.00 | 0.00 | 78 | 1024.7 |
| 20260830132143 | 69 | 335 | 0.0 | 0.0 | 0.00 | 0.00 | 0.00 | 77 | 1024.7 |
| 20260830131642 | 69 | 331 | 0.0 | 0.0 | 0.00 | 0.00 | 0.00 | 78 | 1024.8 |
| 20260830131136 | 69 | 328 | 0.0 | 0.0 | 0.00 | 0.00 | 0.00 | 77 | 1024.8 |
| 20260830130631 | 68 | 309 | 0.0 | 0.0 | 0.00 | 0.00 | 0.00 | 77 | 1025.0 |
| 20260830130126 | 67 | 324 | 0.0 | 0.0 | 0.00 | 0.00 | 0.00 | 84 | 1024.9 |
| 20260830125625 | 66 | 325 | 0.0 | 0.0 | 0.00 | 0.00 | 0.00 | 82 | 1024.9 |
| 20260830125120 | 65 | 331 | 0.0 | 0.0 | 0.00 | 0.00 | 0.00 | 85 | 1025.1 |
| 20260830124619 | 65 | 330 | 0.0 | 0.0 | 0.00 | 0.00 | 0.00 | 85 | 1025.1 |
| 20260830124114 | 64 | 332 | 0.0 | 0.0 | 0.00 | 0.00 | 0.00 | 87 | 1025.0 |
| 20260830123611 | 63 | 330 | 0.0 | 0.0 | 0.00 | 0.00 | 0.00 | 88 | 1025.2 |
| 20260830123106 | 64 | 324 | 0.0 | 0.0 | 0.00 | 0.00 | 0.00 | 89 | 1025.0 |
| 20260830122603 | 64 | 324 | 0.0 | 0.0 | 0.00 | 0.00 | 0.00 | 87 | 1025.2 |
| 20260830122059 | 63 | 324 | 0.0 | 0.0 | 0.00 | 0.00 | 0.00 | 88 | 1025.2 |
| 20260830121554 | 63 | 324 | 0.0 | 0.0 | 0.00 | 0.00 | 0.00 | 89 | 1025.3 |
| 20260830121054 | 62 | 325 | 0.0 | 0.0 | 0.00 | 0.00 | 0.00 | 91 | 1025.5 |
| 20260830120549 | 61 | 326 | 0.0 | 0.0 | 0.00 | 0.00 | 0.00 | 92 | 1025.3 |
| 20260830120046 | 60 | 326 | 0.0 | 0.0 | 0.00 | 0.00 | 0.00 | 94 | 1025.3 |
| 20260830115541 | 59 | 323 | 0.0 | 0.0 | 0.00 | 0.00 | 0.00 | 96 | 1025.5 |
| 20260830115037 | 59 | 324 | 0.0 | 0.0 | 0.00 | 0.00 | 0.00 | 96 | 1025.4 |
| 20260830114533 | 58 | 324 | 0.0 | 0.0 | 0.00 | 0.00 | 0.00 | 97 | 1025.4 |
| 20260830114033 | 58 | 324 | 0.0 | 0.0 | 0.00 | 0.00 | 0.00 | 97 | 1025.6 |
| 20260830113528 | 58 | 324 | 0.0 | 0.0 | 0.00 | 0.00 | 0.00 | 96 | 1025.5 |
| 20260830113023 | 58 | 324 | 0.0 | 0.0 | 0.00 | 0.00 | 0.00 | 96 | 1025.6 |
| 20260830112519 | 58 | 324 | 0.0 | 0.0 | 0.00 | 0.00 | 0.00 | 96 | 1025.5 |
| 20260830112015 | 58 | 322 | 0.0 | 0.0 | 0.00 | 0.00 | 0.00 | 96 | 1025.7 |
| 20260830111511 | 58 | 322 | 0.0 | 0.0 | 0.00 | 0.00 | 0.00 | 95 | 1025.3 |
| 20260830111007 | 58 | 322 | 0.0 | 0.0 | 0.00 | 0.00 | 0.00 | 95 | 1025.4 |
| 20260830110506 | 59 | 322 | 0.0 | 0.0 | 0.00 | 0.00 | 0.00 | 95 | 1025.4 |
| 20260830110001 | 58 | 324 | 0.0 | 0.0 | 0.00 | 0.00 | 0.00 | 94 | 1025.4 |
| 20260830105457 | 59 | 324 | 0.0 | 0.0 | 0.00 | 0.00 | 0.00 | 94 | 1025.2 |
| 20260830104953 | 59 | 324 | 0.0 | 0.0 | 0.00 | 0.00 | 0.00 | 93 | 1025.3 |
| 20260830104449 | 59 | 325 | 0.0 | 0.0 | 0.00 | 0.00 | 0.00 | 92 | 1025.3 |
| 20260830103944 | 59 | 325 | 0.0 | 0.0 | 0.00 | 0.00 | 0.00 | 92 | 1025.2 |
| 20260830103440 | 59 | 332 | 0.0 | 0.0 | 0.00 | 0.00 | 0.00 | 91 | 1025.3 |
| 20260830102938 | 59 | 337 | 0.0 | 0.0 | 0.00 | 0.00 | 0.00 | 91 | 1025.2 |
| 20260830102433 | 59 | 326 | 0.0 | 0.0 | 0.00 | 0.00 | 0.00 | 90 | 1025.1 |
| 20260830101929 | 59 | 326 | 0.0 | 0.0 | 0.00 | 0.00 | 0.00 | 90 | 1025.1 |
| 20260830101424 | 59 | 326 | 0.0 | 0.0 | 0.00 | 0.00 | 0.00 | 90 | 1025.0 |
| 20260830100924 | 59 | 326 | 0.0 | 0.0 | 0.00 | 0.00 | 0.00 | 91 | 1025.1 |
| 20260830100423 | 59 | 325 | 0.0 | 0.0 | 0.00 | 0.00 | 0.00 | 90 | 1025.2 |
| 20260830095921 | 59 | 326 | 0.0 | 0.0 | 0.00 | 0.00 | 0.00 | 90 | 1025.1 |
| 20260830095412 | 59 | 325 | 0.0 | 0.0 | 0.00 | 0.00 | 0.00 | 90 | 1025.2 |
| 20260830094909 | 59 | 325 | 0.0 | 0.0 | 0.00 | 0.00 | 0.00 | 91 | 1025.2 |
| 20260830094404 | 59 | 325 | 0.0 | 0.0 | 0.00 | 0.00 | 0.00 | 90 | 1025.1 |
| 20260830093900 | 59 | 325 | 0.0 | 0.0 | 0.00 | 0.00 | 0.00 | 90 | 1025.3 |
| 20260830093355 | 59 | 325 | 0.0 | 0.0 | 0.00 | 0.00 | 0.00 | 89 | 1025.3 |
| 20260830092850 | 59 | 325 | 0.0 | 0.0 | 0.00 | 0.00 | 0.00 | 90 | 1025.1 |
| 20260830092346 | 60 | 325 | 0.0 | 0.0 | 0.00 | 0.00 | 0.00 | 90 | 1025.3 |
| 20260830091843 | 60 | 325 | 0.0 | 0.0 | 0.00 | 0.00 | 0.00 | 88 | 1025.2 |
| 20260830091342 | 60 | 334 | 0.0 | 0.0 | 0.00 | 0.00 | 0.00 | 87 | 1024.9 |
| 20260830090841 | 60 | 334 | 0.0 | 0.0 | 0.00 | 0.00 | 0.00 | 89 | 1025.3 |
| 20260830090337 | 60 | 335 | 0.0 | 0.0 | 0.00 | 0.00 | 0.00 | 89 | 1025.0 |
| 20260830085836 | 60 | 328 | 0.0 | 0.0 | 0.00 | 0.00 | 0.00 | 89 | 1025.4 |
| 20260830085331 | 60 | 327 | 0.0 | 0.0 | 0.00 | 0.00 | 0.00 | 90 | 1025.4 |
| 20260830084827 | 59 | 327 | 0.0 | 0.0 | 0.00 | 0.00 | 0.00 | 90 | 1025.4 |
| 20260830084322 | 59 | 327 | 0.0 | 0.0 | 0.00 | 0.00 | 0.00 | 90 | 1025.5 |
| 20260830083817 | 59 | 326 | 0.0 | 0.0 | 0.00 | 0.00 | 0.00 | 91 | 1025.5 |
| 20260830083313 | 59 | 326 | 0.0 | 0.0 | 0.00 | 0.00 | 0.00 | 91 | 1025.6 |
| 20260830082813 | 59 | 328 | 0.0 | 0.0 | 0.00 | 0.00 | 0.00 | 91 | 1025.3 |
| 20260830082308 | 60 | 329 | 0.0 | 0.0 | 0.00 | 0.00 | 0.00 | 91 | 1025.6 |
| 20260830081803 | 59 | 327 | 0.0 | 0.0 | 0.00 | 0.00 | 0.00 | 91 | 1025.6 |
| 20260830081302 | 59 | 325 | 0.0 | 0.0 | 0.00 | 0.00 | 0.00 | 91 | 1025.4 |
| 20260830080757 | 59 | 324 | 0.0 | 0.0 | 0.00 | 0.00 | 0.00 | 91 | 1025.6 |
| 20260830080254 | 59 | 324 | 0.0 | 0.0 | 0.00 | 0.00 | 0.00 | 90 | 1025.6 |
| 20260830075753 | 60 | 324 | 0.0 | 0.0 | 0.00 | 0.00 | 0.00 | 91 | 1025.6 |
| 20260830075248 | 60 | 328 | 0.0 | 0.0 | 0.00 | 0.00 | 0.00 | 89 | 1025.6 |
| 20260830074743 | 60 | 327 | 0.0 | 0.0 | 0.00 | 0.00 | 0.00 | 90 | 1026.0 |
| 20260830074239 | 59 | 326 | 0.0 | 0.0 | 0.00 | 0.00 | 0.00 | 90 | 1025.6 |
| 20260830073735 | 59 | 326 | 0.0 | 0.0 | 0.00 | 0.00 | 0.00 | 92 | 1025.6 |
| 20260830073231 | 59 | 326 | 0.0 | 0.0 | 0.00 | 0.00 | 0.00 | 93 | 1025.5 |
| 20260830072725 | 59 | 326 | 0.0 | 0.0 | 0.00 | 0.00 | 0.00 | 92 | 1025.3 |
| 20260830072220 | 59 | 326 | 0.0 | 0.0 | 0.00 | 0.00 | 0.00 | 91 | 1025.6 |
| 20260830071715 | 59 | 326 | 0.0 | 0.0 | 0.00 | 0.00 | 0.00 | 91 | 1025.3 |
| 20260830071214 | 59 | 326 | 0.0 | 0.0 | 0.00 | 0.00 | 0.00 | 91 | 1025.3 |
| 20260830070708 | 59 | 326 | 0.0 | 0.0 | 0.00 | 0.00 | 0.00 | 91 | 1025.2 |
| 20260830070203 | 59 | 326 | 0.0 | 0.0 | 0.00 | 0.00 | 0.00 | 91 | 1025.5 |
| 20260830065701 | 59 | 326 | 0.0 | 0.0 | 0.00 | 0.00 | 0.00 | 91 | 1025.1 |
| 20260830065156 | 58 | 329 | 0.0 | 0.0 | 0.00 | 0.00 | 0.00 | 91 | 1025.4 |
| 20260830064655 | 58 | 338 | 0.0 | 0.0 | 0.00 | 0.00 | 0.00 | 92 | 1025.3 |
| 20260830064150 | 58 | 333 | 0.0 | 0.0 | 0.00 | 0.00 | 0.00 | 92 | 1025.6 |
| 20260830063649 | 57 | 332 | 0.0 | 0.0 | 0.00 | 0.00 | 0.00 | 92 | 1025.6 |
| 20260830063144 | 57 | 332 | 0.0 | 0.0 | 0.00 | 0.00 | 0.00 | 92 | 1025.5 |
| 20260830062638 | 57 | 325 | 0.0 | 0.0 | 0.00 | 0.00 | 0.00 | 93 | 1025.5 |
| 20260830062133 | 57 | 324 | 0.0 | 0.0 | 0.00 | 0.00 | 0.00 | 94 | 1025.6 |
| 20260830061627 | 57 | 325 | 0.0 | 0.0 | 0.00 | 0.00 | 0.00 | 94 | 1025.7 |
| 20260830061123 | 57 | 326 | 0.0 | 0.0 | 0.00 | 0.00 | 0.00 | 94 | 1025.6 |
| 20260830060621 | 57 | 324 | 0.0 | 0.0 | 0.00 | 0.00 | 0.00 | 94 | 1025.8 |
| 20260830060116 | 57 | 324 | 0.0 | 0.0 | 0.00 | 0.00 | 0.00 | 94 | 1025.5 |
| 20260830055611 | 57 | 324 | 0.0 | 0.0 | 0.00 | 0.00 | 0.00 | 94 | 1025.4 |
| 20260830055107 | 57 | 324 | 0.0 | 0.0 | 0.00 | 0.00 | 0.00 | 93 | 1025.5 |
| 20260830054556 | 57 | 324 | 0.0 | 0.0 | 0.00 | 0.00 | 0.00 | 93 | 1025.2 |
| 20260830054051 | 57 | 324 | 0.0 | 0.0 | 0.00 | 0.00 | 0.00 | 92 | 1025.4 |